SCP
0 0 0 0 0 0 -0 0 0 0 0 0 0 0 0 0 0 0 0 0 -0 -0 -0 -0 -0 -0 -0 -0 -0 -0 -0 -0 -0 -0 -0 -0 0 -0 -0 -0 -0 -0 -0 -0 -0 -0 -0 -0 -0
0 0 0 0 0 0 0 0 0 0 0 0 0 0 0 0 0 0 0 0 0 0 -0 -0 -0 -0 -0 -0 -0 -0 -0 -0 -0 -0 -0 -0 0 0 0 0 -0 -0 0 0 0 0 -0 -0 -0
-0 0 0 0 0 -0 0 0 0 0 0 0 0 0 0 0 0 0 0 0 0 0 0 0 0 0 -0 -0 -0 -0 -0 -0 -0 -0 -0 0 0 0 0 0 0 0 0 0 0 0 0 0 0
0 0 0 0 -0 0 0 0 0 0 0 0 0 0 0 0 0 0 0 0 0 0 0 0 0 0 0 -0 0 0 0 -0 -0 -0 0 0 0 0 0 0 0 0 0 0 0 0 0 0 0
0 0 0 0 0 0 0 0 0 0 0 0 0 0 0 0 0 0 0 0 0 0 0 0 0 0 0 0 0 0 0 0 0 0 0 0 0 0 0 0 0 0 0 0 0 0 0 0 0
0 0 0 0 -0 0 0 0 0 0 0 0 0 0 0 0 0 0 0 0 0 0 0 0 0 0 0 0 0 0 0 0 0 0 0 0 0 0 0 0 0 0 0 0 0 0 0 0 0
0 0 0 0 -0 0 0 0 0 0 0 0 0 0 0 0 0 0 0 0 0 0 0 0 0 0 0 0 0 0 0 0 0 0 0 0 0 0 0 0 0 0 0 0 0 0 0 0 0
0 0 0 0 0 0 0 0 0 0 0 0 0 0 0 0 0 0 0 0 0 0 0 0 0 0 0 0 0 0 0 0 0 0 0 -0 0 0 0 0 0 0 0 0 0 0 0 0 0
0 0 0 0 0 0 0 0 0 0 0 0 0 0 0 0 0 0 0 0 0 0 0 0 0 0 0 0 0 0 0 0 0 0 0 0 0 0 0 0 0 0 0 0 0 0 0 0 0
0 0 0 0 0 0 0 0 0 0 0 0 0 0 0 0 0 0 0 0 0 0 0 0 0 0 0 0 0 0 0 0 0 0 0 0 0 0 0 0 0 0 0 0 0 0 0 0 0
0 0 0 0 0 0 0 0 0 0 0 0 0 0 0 0 0 0 0 0 0 0 0 0 0 0 0 0 0 0 0 0 0 0 0 0 0 0 0 0 0 0 0 0 0 0 0 0 0
0 0 0 0 0 0 0 0 0 0 0 0 0 0 0 0 0 0 0 0 0 0 0 0 0 0 0 0 0 0 0 0 0 0 0 0 0 0 0 0 0 0 0 0 0 0 0 0 0
0 0 0 0 0 0 0 0 0 0 0 0 0 0 0 0 0 0 0 0 0 0 0 0 0 0 0 0 0 0 0 0 0 0 0 0 0 0 0 0 0 0 0 0 0 0 0 0 0
0 0 0 0 0 0 0 0 0 0 0 0 0 0 0 0 0 0 0 0 0 0 0 0 0 0 0 0 0 0 0 0 0 0 0 0 0 0 0 0 0 0 0 0 0 -0 -0 0 -0
0 0 0 0 0 0 0 0 0 0 0 0 0 0 0 0 0 0 0 0 0 0 0 0 0 0 0 0 0 0 0 0 0 0 0 0 0 0 0 0 0 0 0 0 -0 -0 -0 0 -0
0 0 0 0 0 0 0 0 0 0 0 0 0 0 0 0 0 0 0 0 0 0 0 0 0 0 0 0 0 0 0 0 0 0 0 0 0 0 0 0 0 0 0 0 -0 -0 -0 -0 -0
0 0 0 0 0 0 0 0 0 0 0 0 0 0 0 0 0 0 0 0 0 0 0 0 0 0 0 0 0 0 0 0 0 0 0 0 0 0 0 0 0 0 0 0 0 -0 -0 -0 -0
0 0 0 0 0 0 0 0 0 0 0 0 0 0 0 0 0 0 0 0 0 0 0 0 0 0 0 0 0 0 0 0 0 0 0 0 0 0 0 0 0 0 0 0 0 0 0 -0 -0
0 0 0 0 0 0 0 0 0 0 0 0 0 0 0 0 0 0 0 0 0 0 0 0 0 0 0 0 0 0 0 0 0 0 0 0 0 0 0 0 0 0 0 0 0 0 -0 0 -0
0 0 0 0 0 0 0 0 0 0 0 0 0 0 0 0 0 0 0 0 0 0 0 0 0 0 0 0 0 0 0 0 0 0 0 0 0 0 0 0 0 0 0 0 0 0 0 0 -0
0 0 0 0 0 0 0 0 0 0 0 0 0 0 0 0 0 0 0 0 0 0 0 0 0 0 0 0 0 0 0 0 0 0 0 0 0 0 0 0 0 0 0 0 0 0 0 0 0
0 0 0 0 0 0 0 -0 0 0 0 0 0 0 0 0 0 0 0 0 0 0 0 0 0 0 0 0 0 0 0 0 0 0 0 0 0 0 0 0 0 0 0 0 0 0 0 0 0
0 0 0 0 0 0 0 0 0 0 0 0 0 0 0 0 0 0 0 0 0 0 0 0 0 0 0 0 0 0 0 0 0 0 0 0 0 0 0 0 0 0 0 0 0 0 0 0 0
0 0 0 0 0 0 0 0 0 0 0 0 0 0 0 0 0 0 0 0 0 0 0 0 0 0 0 0 0 0 0 0 0 0 0 0 0 0 0 0 0 0 0 0 0 0 0 0 0
0 0 0 0 0 0 0 0 0 0 0 0 0 0 0 0 0 0 0 0 0 0 0 0 0 0 0 0 0 0 0 0 0 0 0 0 0 0 0 0 0 0 0 0 0 0 0 0 0
0 0 0 0 0 0 0 0 0 0 0 0 0 0 0 0 0 0 0 0 0 0 0 0 0 0 0 0 0 0 0 0 0 0 0 0 0 0 0 0 0 0 0 0 0 0 0 0 0
0 0 0 0 0 0 0 0 0 0 0 0 0 0 0 0 0 0 0 0 0 0 0 0 0 0 0 0 0 0 0 0 0 0 0 0 0 0 0 0 0 0 0 0 0 0 0 0 0
0 0 0 0 0 0 0 0 0 0 0 0 0 0 0 0 0 0 0 0 0 0 0 0 0 0 0 0 0 0 0 0 0 0 0 0 0 0 0 0 0 0 0 0 0 0 0 0 0
0 0 0 0 0 0 0 0 0 0 0 0 0 0 0 0 0 0 0 0 0 0 0 0 0 0 0 0 0 0 0 0 0 0 0 0 0 0 0 0 0 0 0 0 0 0 0 0 0
0 0 0 0 0 0 0 0 0 0 0 0 0 0 0 0 0 0 0 0 0 0 0 0 0 0 0 0 0 0 0 0 0 0 0 0 0 0 0 0 0 0 0 0 0 0 0 0 0
Wind_Speed_500mb
8 5 6 3 3 6 11 9 8 10 0 8 11 10 5 11 4 4 17 35 33 24 21 18 14 12 9 8 7 8 7 6 3 5 10 12 14 15 16 16 16 15 15 14 14 15 18 21 23
6 7 6 10 4 8 3 14 7 9 14 12 7 12 4 5 2 6 19 35 36 26 23 15 15 13 9 5 4 6 7 10 13 16 19 21 19 20 20 20 17 18 18 20 22 23 23 23 24
5 5 5 6 8 12 5 8 14 22 17 10 4 4 8 5 5 8 16 34 33 27 21 16 12 8 7 5 4 4 4 5 8 13 16 18 18 19 20 22 24 24 25 27 28 29 28 29 30
9 4 11 5 20 9 8 8 32 20 7 8 5 5 7 18 13 20 21 35 34 29 25 21 18 14 11 6 3 2 3 5 7 8 10 12 13 17 18 20 20 22 25 27 32 34 35 35 36
2 9 7 11 20 2 11 8 19 16 20 23 16 8 8 16 28 24 19 38 37 33 29 24 19 13 9 6 4 4 4 5 9 12 14 15 15 16 19 21 21 23 25 28 31 31 32 35 39
9 9 7 12 12 9 8 11 14 20 23 19 17 22 9 19 25 28 26 38 40 37 30 26 23 20 16 11 9 6 5 5 6 7 9 11 13 15 14 14 15 17 19 21 24 28 31 35 38
7 5 13 21 16 9 9 18 17 21 23 23 14 6 11 25 25 30 32 39 40 37 35 33 32 29 23 15 11 8 6 6 5 9 12 13 14 14 12 13 15 16 17 18 20 23 25 28 31
8 5 11 13 8 10 9 13 7 20 16 13 29 12 8 28 27 30 34 41 44 42 42 42 37 34 25 19 14 11 8 7 10 14 17 18 16 13 13 16 18 20 22 23 25 27 29 30 31
6 5 11 16 0 2 13 9 14 13 16 19 23 23 17 20 26 30 39 44 48 50 50 51 46 40 33 25 19 16 15 13 14 18 19 17 12 10 13 17 22 25 29 31 32 32 32 30 31
9 6 10 5 12 8 4 19 19 10 20 26 31 35 40 37 39 40 45 49 53 56 57 58 53 48 39 35 29 24 23 22 22 21 19 17 13 12 15 18 21 22 25 28 31 32 32 33 32
11 9 9 8 14 14 15 21 23 19 16 40 43 52 53 52 52 52 52 53 54 56 59 61 57 52 46 44 36 32 32 31 28 23 21 19 16 15 15 18 19 22 24 27 31 34 35 36 38
9 31 39 13 10 8 9 12 18 40 51 13 18 32 48 60 58 56 58 57 57 59 59 61 62 59 52 50 42 41 39 36 32 27 25 22 19 19 19 19 21 22 26 31 37 38 38 37 35
17 23 34 28 25 26 27 36 20 45 49 53 49 52 44 53 60 59 56 56 58 63 63 64 62 62 58 53 49 47 44 40 35 31 28 24 23 21 19 20 21 22 28 34 38 41 42 38 37
17 25 37 32 35 26 16 20 27 36 32 51 59 58 62 64 68 63 63 65 66 66 68 68 63 63 62 56 55 51 46 42 37 34 30 26 25 23 21 21 19 23 31 37 42 44 44 44 44
15 16 21 34 38 14 11 21 28 73 43 38 41 54 69 73 65 75 70 69 65 68 71 73 68 66 65 60 58 55 51 47 43 40 35 30 30 26 22 19 20 26 33 40 45 45 44 44 46
7 10 9 11 24 18 23 25 19 33 48 62 60 52 55 66 75 75 73 71 64 67 75 75 71 68 67 64 62 58 54 49 47 43 37 34 30 24 20 18 21 28 34 39 42 42 42 45 50
17 13 18 20 26 14 19 17 21 18 14 31 45 52 60 67 74 76 74 71 67 69 77 77 73 70 69 66 61 59 54 51 46 42 39 35 30 27 21 20 23 30 36 38 41 42 45 49 53
14 13 21 25 14 14 16 35 26 53 43 55 68 71 72 75 79 74 76 70 71 73 78 75 72 70 67 65 62 62 57 53 49 45 44 39 35 28 21 21 27 33 37 38 40 40 41 47 56
30 32 32 43 22 20 31 37 32 37 54 48 62 71 66 70 69 65 69 72 67 74 78 77 73 72 69 73 72 68 62 57 53 50 49 45 39 28 24 27 35 36 37 38 39 39 43 45 51
18 26 40 37 23 13 19 27 26 19 40 67 62 72 69 45 39 51 61 66 68 77 79 77 76 71 74 76 73 68 61 60 54 54 53 50 41 33 31 36 37 36 35 36 37 39 42 45 46
24 20 29 31 18 13 11 15 23 18 51 60 70 83 63 50 46 51 58 62 67 81 85 80 78 73 76 77 73 71 65 62 62 61 59 56 47 39 34 36 38 39 37 37 37 39 41 46 47
42 17 17 23 12 12 8 31 17 12 25 21 53 77 50 43 44 54 59 61 69 76 77 77 75 74 76 78 81 82 79 75 70 62 59 60 53 48 42 37 40 40 38 38 42 43 42 45 50
11 4 4 7 12 12 11 19 11 19 18 22 26 68 59 41 51 54 58 58 60 67 72 72 73 75 78 82 84 80 78 72 65 64 64 62 58 53 47 40 41 40 39 41 46 45 42 46 53
6 3 7 5 5 19 21 23 5 13 17 13 19 61 57 37 40 37 46 51 58 60 67 70 73 76 78 82 84 79 79 77 76 73 68 64 62 57 47 44 43 42 41 44 48 48 48 51 55
7 6 7 7 1 31 20 20 33 11 16 22 25 51 43 46 43 36 51 60 64 66 70 74 75 78 81 82 80 82 79 81 83 78 73 69 66 58 51 49 45 42 43 47 50 49 51 52 56
17 17 12 14 21 41 5 18 18 21 25 40 61 66 31 40 38 39 51 59 65 66 70 75 76 79 83 82 74 79 82 84 86 83 77 74 68 61 56 50 46 44 46 49 51 51 53 55 55
12 12 8 2 3 8 25 29 22 22 23 21 26 30 30 32 34 41 46 55 62 63 66 73 77 79 82 79 75 77 84 88 89 87 81 75 70 65 57 51 47 47 48 50 50 50 50 50 51
8 2 5 4 4 15 36 27 33 26 37 17 11 16 26 29 35 37 47 56 62 61 63 69 78 84 82 81 78 78 83 87 89 88 84 79 73 66 58 54 50 48 48 50 49 46 46 49 49
4 8 10 2 11 13 21 30 8 12 10 17 16 14 13 20 31 37 41 55 61 61 65 71 77 85 87 89 86 84 83 88 92 91 85 80 73 67 61 53 50 49 48 48 46 43 46 48 52
11 22 25 20 32 9 23 46 11 9 18 21 16 20 33 40 36 36 38 50 58 61 65 71 79 87 94 94 89 88 87 89 93 92 85 78 71 63 55 51 50 47 46 45 44 45 47 51 55
Wind_Direction_500mb
153 123 69 297 286 212 258 153 39 102 246 64 327 82 353 359 342 205 181 183 189 181 192 190 193 185 193 219 220 219 223 203 165 310 302 306 309 305 302 302 303 307 306 305 313 301 296 306 312
174 88 14 288 246 260 316 97 146 156 80 104 0 34 16 61 69 181 164 177 189 183 202 184 187 189 187 228 294 294 286 283 280 290 294 299 303 303 302 304 308 306 304 299 296 298 301 300 303
161 125 274 203 235 261 31 120 147 88 104 132 167 253 320 85 125 206 208 192 185 191 199 200 194 189 183 190 186 205 228 248 263 276 295 297 296 290 288 285 284 285 286 289 292 297 300 301 299
99 288 270 259 268 306 30 86 112 114 136 196 216 197 210 210 185 225 218 189 197 200 198 200 193 185 173 159 123 12 345 344 316 314 303 298 297 298 295 290 289 289 288 290 292 295 295 294 295
86 266 258 230 251 158 102 340 132 161 165 187 181 202 217 220 233 242 219 199 202 209 211 205 197 190 193 206 219 247 270 297 300 310 309 307 303 296 294 295 297 297 298 299 297 296 293 292 289
268 243 279 261 321 121 111 174 193 195 188 131 186 261 223 233 234 228 213 202 208 215 218 207 202 202 213 225 231 235 273 286 292 299 312 319 314 312 311 312 311 310 310 312 312 308 305 299 295
259 286 259 283 306 308 164 150 214 218 215 179 190 252 212 234 241 224 212 211 217 218 219 215 213 214 218 220 228 236 255 280 313 334 340 337 334 337 344 344 347 347 343 338 333 327 321 318 316
280 284 274 272 276 328 107 153 212 248 241 222 199 218 212 247 233 220 213 218 220 221 222 223 220 223 223 226 229 237 252 277 314 325 325 323 319 329 345 353 352 351 350 347 342 338 335 330 326
243 270 265 272 317 311 128 216 204 223 237 215 214 227 248 241 227 222 217 221 223 225 224 225 225 226 225 225 228 232 243 252 280 292 294 289 295 318 341 347 348 350 346 344 340 337 331 327 322
230 238 264 33 335 292 223 205 241 204 233 239 234 240 244 245 238 232 229 229 228 230 225 227 228 228 227 226 224 229 235 241 254 262 267 273 287 310 324 333 338 338 338 335 331 324 320 318 315
228 232 292 297 293 292 276 271 236 249 251 239 228 232 243 244 241 239 240 239 238 235 231 231 230 228 225 227 225 226 230 236 244 253 257 263 271 281 294 306 318 324 325 324 323 321 319 317 317
270 244 254 285 262 253 239 256 258 236 233 247 249 233 238 233 238 241 241 239 236 235 236 233 231 229 227 228 227 230 232 234 238 243 247 252 257 265 279 300 312 316 323 326 325 324 321 318 316
237 263 277 270 254 244 261 263 252 255 250 253 257 259 245 242 244 249 248 242 236 235 236 237 231 228 225 227 226 228 231 233 236 238 240 248 257 265 279 295 303 316 323 321 325 325 322 320 320
346 304 290 282 245 227 228 264 250 257 259 251 245 246 247 244 246 246 243 239 232 233 233 237 231 227 225 224 227 229 231 236 237 239 239 245 252 256 268 282 294 308 318 324 325 327 328 330 332
290 304 277 254 236 236 224 279 231 256 245 244 244 244 245 249 244 245 246 242 236 231 232 234 231 226 224 222 226 228 231 233 236 235 232 237 244 249 265 276 297 313 318 323 329 331 332 333 333
233 240 281 268 206 162 145 260 234 258 242 242 241 246 250 246 253 249 245 243 238 232 230 231 230 224 222 221 225 228 230 231 230 230 230 231 238 249 260 275 300 313 316 323 328 330 333 336 334
226 250 236 273 179 134 179 256 264 239 246 265 250 248 253 256 255 247 244 239 239 234 231 229 229 224 221 220 221 225 227 229 231 233 234 234 239 248 259 280 305 309 311 321 329 333 335 336 334
255 247 283 278 200 198 207 250 262 269 269 261 267 266 260 260 256 251 240 237 238 233 230 230 226 223 219 220 221 224 226 227 231 233 233 231 238 244 256 279 297 301 308 322 328 329 333 336 334
254 264 261 271 265 188 230 246 252 250 270 266 264 267 264 264 265 254 243 230 231 227 223 226 225 223 218 218 220 224 227 230 232 233 233 231 235 238 256 279 293 298 309 318 322 325 329 335 332
276 276 271 275 286 179 259 260 263 255 259 261 266 268 269 261 251 238 228 221 224 221 220 223 227 224 222 223 225 228 229 230 234 233 232 233 234 239 254 278 290 296 303 308 317 319 324 327 331
238 243 262 265 282 217 271 259 250 243 253 262 265 267 261 252 241 223 215 224 224 218 220 223 226 226 224 225 224 225 225 227 229 233 234 232 232 238 250 272 286 292 299 305 310 312 318 317 323
268 239 263 271 270 243 88 290 224 240 266 238 256 270 262 253 225 224 224 227 223 221 222 223 226 227 226 225 225 228 233 235 238 239 234 231 233 238 247 264 280 287 294 301 303 307 311 307 312
258 72 296 286 269 312 218 276 244 187 242 237 247 261 270 263 235 218 227 229 224 220 221 221 223 227 227 227 229 232 232 235 236 234 232 233 234 238 247 262 276 284 290 294 297 299 304 306 307
128 305 247 249 231 256 203 217 206 186 211 219 233 254 260 254 212 219 222 218 215 215 216 219 221 224 226 229 231 232 233 231 232 233 233 233 234 238 246 259 269 277 283 287 293 300 303 303 304
174 158 295 301 269 264 185 237 249 224 182 196 219 237 256 220 225 213 207 208 209 215 214 217 219 223 225 230 233 234 233 232 236 237 235 233 234 238 245 255 265 271 277 285 290 295 301 304 305
180 176 174 225 258 278 130 252 254 222 230 230 231 239 223 200 216 225 217 214 214 218 218 219 220 223 226 230 234 236 235 235 235 236 235 236 238 240 245 254 262 267 274 281 289 297 302 305 307
182 196 211 254 43 313 269 279 279 231 232 233 213 176 183 206 225 226 224 225 221 223 226 225 223 225 226 228 233 237 235 235 234 234 235 236 237 238 244 250 257 265 273 280 288 296 303 303 303
189 262 119 231 228 240 277 287 271 270 260 225 159 204 218 232 234 236 231 233 233 234 235 231 228 228 227 227 233 238 236 235 235 234 234 234 234 236 241 247 254 262 273 281 289 297 297 296 297
167 233 226 237 187 222 264 271 281 144 155 167 205 213 228 232 244 244 242 239 240 245 242 236 233 230 229 231 233 236 237 235 235 234 232 232 231 233 237 244 253 263 272 280 287 291 291 293 295
232 215 203 222 240 236 236 259 195 327 132 130 151 183 269 261 239 243 253 246 242 244 244 242 239 236 235 234 234 235 237 237 233 231 229 228 228 230 237 246 254 265 274 281 286 289 292 293 296
Wind_Speed_850mb
8 5 6 3 3 6 11 9 8 10 0 8 11 10 5 11 4 4 17 35 33 24 21 18 14 12 9 8 7 8 7 6 3 5 10 12 14 15 16 16 16 15 15 14 14 15 18 21 23
6 7 6 10 4 8 3 14 7 9 14 12 7 12 4 5 2 6 19 35 36 26 23 15 15 13 9 5 4 6 7 10 13 16 19 21 19 20 20 20 17 18 18 20 22 23 23 23 24
5 5 5 6 8 12 5 8 14 22 17 10 4 4 8 5 5 8 16 34 33 27 21 16 12 8 7 5 4 4 4 5 8 13 16 18 18 19 20 22 24 24 25 27 28 29 28 29 30
9 4 11 5 20 9 8 8 32 20 7 8 5 5 7 18 13 20 21 35 34 29 25 21 18 14 11 6 3 2 3 5 7 8 10 12 13 17 18 20 20 22 25 27 32 34 35 35 36
2 9 7 11 20 2 11 8 19 16 20 23 16 8 8 16 28 24 19 38 37 33 29 24 19 13 9 6 4 4 4 5 9 12 14 15 15 16 19 21 21 23 25 28 31 31 32 35 39
9 9 7 12 12 9 8 11 14 20 23 19 17 22 9 19 25 28 26 38 40 37 30 26 23 20 16 11 9 6 5 5 6 7 9 11 13 15 14 14 15 17 19 21 24 28 31 35 38
7 5 13 21 16 9 9 18 17 21 23 23 14 6 11 25 25 30 32 39 40 37 35 33 32 29 23 15 11 8 6 6 5 9 12 13 14 14 12 13 15 16 17 18 20 23 25 28 31
8 5 11 13 8 10 9 13 7 20 16 13 29 12 8 28 27 30 34 41 44 42 42 42 37 34 25 19 14 11 8 7 10 14 17 18 16 13 13 16 18 20 22 23 25 27 29 30 31
6 5 11 16 0 2 13 9 14 13 16 19 23 23 17 20 26 30 39 44 48 50 50 51 46 40 33 25 19 16 15 13 14 18 19 17 12 10 13 17 22 25 29 31 32 32 32 30 31
9 6 10 5 12 8 4 19 19 10 20 26 31 35 40 37 39 40 45 49 53 56 57 58 53 48 39 35 29 24 23 22 22 21 19 17 13 12 15 18 21 22 25 28 31 32 32 33 32
11 9 9 8 14 14 15 21 23 19 16 40 43 52 53 52 52 52 52 53 54 56 59 61 57 52 46 44 36 32 32 31 28 23 21 19 16 15 15 18 19 22 24 27 31 34 35 36 38
9 31 39 13 10 8 9 12 18 40 51 13 18 32 48 60 58 56 58 57 57 59 59 61 62 59 52 50 42 41 39 36 32 27 25 22 19 19 19 19 21 22 26 31 37 38 38 37 35
17 23 34 28 25 26 27 36 20 45 49 53 49 52 44 53 60 59 56 56 58 63 63 64 62 62 58 53 49 47 44 40 35 31 28 24 23 21 19 20 21 22 28 34 38 41 42 38 37
17 25 37 32 35 26 16 20 27 36 32 51 59 58 62 64 68 63 63 65 66 66 68 68 63 63 62 56 55 51 46 42 37 34 30 26 25 23 21 21 19 23 31 37 42 44 44 44 44
15 16 21 34 38 14 11 21 28 73 43 38 41 54 69 73 65 75 70 69 65 68 71 73 68 66 65 60 58 55 51 47 43 40 35 30 30 26 22 19 20 26 33 40 45 45 44 44 46
7 10 9 11 24 18 23 25 19 33 48 62 60 52 55 66 75 75 73 71 64 67 75 75 71 68 67 64 62 58 54 49 47 43 37 34 30 24 20 18 21 28 34 39 42 42 42 45 50
17 13 18 20 26 14 19 17 21 18 14 31 45 52 60 67 74 76 74 71 67 69 77 77 73 70 69 66 61 59 54 51 46 42 39 35 30 27 21 20 23 30 36 38 41 42 45 49 53
14 13 21 25 14 14 16 35 26 53 43 55 68 71 72 75 79 74 76 70 71 73 78 75 72 70 67 65 62 62 57 53 49 45 44 39 35 28 21 21 27 33 37 38 40 40 41 47 56
30 32 32 43 22 20 31 37 32 37 54 48 62 71 66 70 69 65 69 72 67 74 78 77 73 72 69 73 72 68 62 57 53 50 49 45 39 28 24 27 35 36 37 38 39 39 43 45 51
18 26 40 37 23 13 19 27 26 19 40 67 62 72 69 45 39 51 61 66 68 77 79 77 76 71 74 76 73 68 61 60 54 54 53 50 41 33 31 36 37 36 35 36 37 39 42 45 46
24 20 29 31 18 13 11 15 23 18 51 60 70 83 63 50 46 51 58 62 67 81 85 80 78 73 76 77 73 71 65 62 62 61 59 56 47 39 34 36 38 39 37 37 37 39 41 46 47
42 17 17 23 12 12 8 31 17 12 25 21 53 77 50 43 44 54 59 61 69 76 77 77 75 74 76 78 81 82 79 75 70 62 59 60 53 48 42 37 40 40 38 38 42 43 42 45 50
11 4 4 7 12 12 11 19 11 19 18 22 26 68 59 41 51 54 58 58 60 67 72 72 73 75 78 82 84 80 78 72 65 64 64 62 58 53 47 40 41 40 39 41 46 45 42 46 53
6 3 7 5 5 19 21 23 5 13 17 13 19 61 57 37 40 37 46 51 58 60 67 70 73 76 78 82 84 79 79 77 76 73 68 64 62 57 47 44 43 42 41 44 48 48 48 51 55
7 6 7 7 1 31 20 20 33 11 16 22 25 51 43 46 43 36 51 60 64 66 70 74 75 78 81 82 80 82 79 81 83 78 73 69 66 58 51 49 45 42 43 47 50 49 51 52 56
17 17 12 14 21 41 5 18 18 21 25 40 61 66 31 40 38 39 51 59 65 66 70 75 76 79 83 82 74 79 82 84 86 83 77 74 68 61 56 50 46 44 46 49 51 51 53 55 55
12 12 8 2 3 8 25 29 22 22 23 21 26 30 30 32 34 41 46 55 62 63 66 73 77 79 82 79 75 77 84 88 89 87 81 75 70 65 57 51 47 47 48 50 50 50 50 50 51
8 2 5 4 4 15 36 27 33 26 37 17 11 16 26 29 35 37 47 56 62 61 63 69 78 84 82 81 78 78 83 87 89 88 84 79 73 66 58 54 50 48 48 50 49 46 46 49 49
4 8 10 2 11 13 21 30 8 12 10 17 16 14 13 20 31 37 41 55 61 61 65 71 77 85 87 89 86 84 83 88 92 91 85 80 73 67 61 53 50 49 48 48 46 43 46 48 52
11 22 25 20 32 9 23 46 11 9 18 21 16 20 33 40 36 36 38 50 58 61 65 71 79 87 94 94 89 88 87 89 93 92 85 78 71 63 55 51 50 47 46 45 44 45 47 51 55
Wind_Direction_850mb
153 123 69 297 286 212 258 153 39 102 246 64 327 82 353 359 342 205 181 183 189 181 192 190 193 185 193 219 220 219 223 203 165 310 302 306 309 305 302 302 303 307 306 305 313 301 296 306 312
174 88 14 288 246 260 316 97 146 156 80 104 0 34 16 61 69 181 164 177 189 183 202 184 187 189 187 228 294 294 286 283 280 290 294 299 303 303 302 304 308 306 304 299 296 298 301 300 303
161 125 274 203 235 261 31 120 147 88 104 132 167 253 320 85 125 206 208 192 185 191 199 200 194 189 183 190 186 205 228 248 263 276 295 297 296 290 288 285 284 285 286 289 292 297 300 301 299
99 288 270 259 268 306 30 86 112 114 136 196 216 197 210 210 185 225 218 189 197 200 198 200 193 185 173 159 123 12 345 344 316 314 303 298 297 298 295 290 289 289 288 290 292 295 295 294 295
86 266 258 230 251 158 102 340 132 161 165 187 181 202 217 220 233 242 219 199 202 209 211 205 197 190 193 206 219 247 270 297 300 310 309 307 303 296 294 295 297 297 298 299 297 296 293 292 289
268 243 279 261 321 121 111 174 193 195 188 131 186 261 223 233 234 228 213 202 208 215 218 207 202 202 213 225 231 235 273 286 292 299 312 319 314 312 311 312 311 310 310 312 312 308 305 299 295
259 286 259 283 306 308 164 150 214 218 215 179 190 252 212 234 241 224 212 211 217 218 219 215 213 214 218 220 228 236 255 280 313 334 340 337 334 337 344 344 347 347 343 338 333 327 321 318 316
280 284 274 272 276 328 107 153 212 248 241 222 199 218 212 247 233 220 213 218 220 221 222 223 220 223 223 226 229 237 252 277 314 325 325 323 319 329 345 353 352 351 350 347 342 338 335 330 326
243 270 265 272 317 311 128 216 204 223 237 215 214 227 248 241 227 222 217 221 223 225 224 225 225 226 225 225 228 232 243 252 280 292 294 289 295 318 341 347 348 350 346 344 340 337 331 327 322
230 238 264 33 335 292 223 205 241 204 233 239 234 240 244 245 238 232 229 229 228 230 225 227 228 228 227 226 224 229 235 241 254 262 267 273 287 310 324 333 338 338 338 335 331 324 320 318 315
228 232 292 297 293 292 276 271 236 249 251 239 228 232 243 244 241 239 240 239 238 235 231 231 230 228 225 227 225 226 230 236 244 253 257 263 271 281 294 306 318 324 325 324 323 321 319 317 317
270 244 254 285 262 253 239 256 258 236 233 247 249 233 238 233 238 241 241 239 236 235 236 233 231 229 227 228 227 230 232 234 238 243 247 252 257 265 279 300 312 316 323 326 325 324 321 318 316
237 263 277 270 254 244 261 263 252 255 250 253 257 259 245 242 244 249 248 242 236 235 236 237 231 228 225 227 226 228 231 233 236 238 240 248 257 265 279 295 303 316 323 321 325 325 322 320 320
346 304 290 282 245 227 228 264 250 257 259 251 245 246 247 244 246 246 243 239 232 233 233 237 231 227 225 224 227 229 231 236 237 239 239 245 252 256 268 282 294 308 318 324 325 327 328 330 332
290 304 277 254 236 236 224 279 231 256 245 244 244 244 245 249 244 245 246 242 236 231 232 234 231 226 224 222 226 228 231 233 236 235 232 237 244 249 265 276 297 313 318 323 329 331 332 333 333
233 240 281 268 206 162 145 260 234 258 242 242 241 246 250 246 253 249 245 243 238 232 230 231 230 224 222 221 225 228 230 231 230 230 230 231 238 249 260 275 300 313 316 323 328 330 333 336 334
226 250 236 273 179 134 179 256 264 239 246 265 250 248 253 256 255 247 244 239 239 234 231 229 229 224 221 220 221 225 227 229 231 233 234 234 239 248 259 280 305 309 311 321 329 333 335 336 334
255 247 283 278 200 198 207 250 262 269 269 261 267 266 260 260 256 251 240 237 238 233 230 230 226 223 219 220 221 224 226 227 231 233 233 231 238 244 256 279 297 301 308 322 328 329 333 336 334
254 264 261 271 265 188 230 246 252 250 270 266 264 267 264 264 265 254 243 230 231 227 223 226 225 223 218 218 220 224 227 230 232 233 233 231 235 238 256 279 293 298 309 318 322 325 329 335 332
276 276 271 275 286 179 259 260 263 255 259 261 266 268 269 261 251 238 228 221 224 221 220 223 227 224 222 223 225 228 229 230 234 233 232 233 234 239 254 278 290 296 303 308 317 319 324 327 331
238 243 262 265 282 217 271 259 250 243 253 262 265 267 261 252 241 223 215 224 224 218 220 223 226 226 224 225 224 225 225 227 229 233 234 232 232 238 250 272 286 292 299 305 310 312 318 317 323
268 239 263 271 270 243 88 290 224 240 266 238 256 270 262 253 225 224 224 227 223 221 222 223 226 227 226 225 225 228 233 235 238 239 234 231 233 238 247 264 280 287 294 301 303 307 311 307 312
258 72 296 286 269 312 218 276 244 187 242 237 247 261 270 263 235 218 227 229 224 220 221 221 223 227 227 227 229 232 232 235 236 234 232 233 234 238 247 262 276 284 290 294 297 299 304 306 307
128 305 247 249 231 256 203 217 206 186 211 219 233 254 260 254 212 219 222 218 215 215 216 219 221 224 226 229 231 232 233 231 232 233 233 233 234 238 246 259 269 277 283 287 293 300 303 303 304
174 158 295 301 269 264 185 237 249 224 182 196 219 237 256 220 225 213 207 208 209 215 214 217 219 223 225 230 233 234 233 232 236 237 235 233 234 238 245 255 265 271 277 285 290 295 301 304 305
180 176 174 225 258 278 130 252 254 222 230 230 231 239 223 200 216 225 217 214 214 218 218 219 220 223 226 230 234 236 235 235 235 236 235 236 238 240 245 254 262 267 274 281 289 297 302 305 307
182 196 211 254 43 313 269 279 279 231 232 233 213 176 183 206 225 226 224 225 221 223 226 225 223 225 226 228 233 237 235 235 234 234 235 236 237 238 244 250 257 265 273 280 288 296 303 303 303
189 262 119 231 228 240 277 287 271 270 260 225 159 204 218 232 234 236 231 233 233 234 235 231 228 228 227 227 233 238 236 235 235 234 234 234 234 236 241 247 254 262 273 281 289 297 297 296 297
167 233 226 237 187 222 264 271 281 144 155 167 205 213 228 232 244 244 242 239 240 245 242 236 233 230 229 231 233 236 237 235 235 234 232 232 231 233 237 244 253 263 272 280 287 291 291 293 295
232 215 203 222 240 236 236 259 195 327 132 130 151 183 269 261 239 243 253 246 242 244 244 242 239 236 235 234 234 235 237 237 233 231 229 228 228 230 237 246 254 265 274 281 286 289 292 293 296